Lid_Strength_Index
3 3 3 3 2 2 3 2 2 3 2 2 2 2 2 2 2 3 3 2 2 2 1 2 2 2 2 2 2 3 3 3 4 3 2 1 1 1 1 1 1 2 3
3 2 3 2 3 3 3 3 2 2 2 2 2 2 1 1 2 2 2 1 2 2 2 2 2 1 2 3 2 4 4 3 3 4 3 2 2 2 2 3 2 2 3
2 3 3 3 3 3 3 3 2 2 2 2 2 2 2 1 1 2 2 1 2 3 3 3 2 2 2 3 3 3 3 2 2 3 3 2 2 2 3 3 3 3 2
2 3 2 2 3 3 3 3 2 2 2 2 2 1 1 1 1 1 2 2 2 2 2 2 2 1 2 2 2 2 3 2 2 3 3 3 3 3 3 4 4 4 4
2 2 2 2 3 2 3 2 2 2 2 2 1 1 1 1 1 2 2 2 2 2 2 1 2 1 2 2 2 2 2 2 3 3 3 3 3 3 4 4 5 5 5
3 2 2 2 2 2 3 3 3 2 2 2 3 2 2 3 9 5 3 3 2 3 3 3 3 3 3 5 4 4 3 2 3 3 3 4 3 4 4 5 6 6 8
3 2 2 2 2 2 2 2 3 3 3 3 3 3 3 5 10 7 5 2 3 3 3 3 2 3 3 3 6 7 7 6 4 2 3 3 4 4 4 5 5 6 6
3 2 2 2 2 2 2 3 3 3 3 3 3 4 5 5 10 8 5 1 2 3 3 3 3 3 4 3 3 3 3 3 3 3 3 4 4 3 4 4 5 5 5
3 3 2 2 2 2 3 3 3 3 4 4 3 4 4 5 10 8 3 2 3 3 3 2 2 2 8 8 3 4 5 5 8 9 8 9 10 9 6 5 6 6 7
3 2 2 2 2 2 3 3 3 3 3 3 3 4 5 4 10 8 4 2 3 3 4 4 7 4 9 8 3 4 5 5 4 5 6 7 6 7 7 5 5 7 6
3 2 2 2 2 2 3 3 3 3 3 3 4 4 2 3 6 9 6 3 2 3 3 3 5 10 9 9 7 3 4 4 6 4 4 4 4 4 3 3 5 4 5
3 3 3 2 2 2 3 3 3 3 3 2 3 3 2 3 7 9 7 6 5 4 3 3 6 10 11 10 7 11 10 6 4 4 4 4 4 5 5 4 3 3 2
2 3 3 3 2 2 3 3 3 4 3 3 3 3 3 3 5 10 9 9 7 5 3 8 11 12 11 10 11 10 8 3 3 4 4 4 4 4 4 3 2 2 4
3 3 3 3 3 3 2 2 3 4 3 3 3 3 3 3 4 4 5 5 8 7 8 6 8 8 8 7 7 5 2 2 3 3 3 2 2 2 3 3 4 5 5
3 3 3 3 3 3 3 3 3 3 2 3 3 3 3 3 4 6 5 3 5 6 6 5 4 3 3 3 2 1 1 2 2 2 2 2 2 2 2 3 4 6 6
3 3 3 3 4 3 5 7 12 10 8 8 7 4 2 5 10 9 9 10 9 10 5 5 5 3 3 2 2 2 2 3 2 2 2 2 2 2 3 4 5 5 7
3 3 3 3 3 4 6 6 7 9 11 12 11 9 7 7 10 10 10 11 11 9 5 5 5 4 3 3 2 4 2 2 3 2 2 2 2 3 5 4 4 6 7
2 7 3 3 3 3 4 5 6 7 6 5 11 10 11 10 10 10 12 10 6 6 4 3 3 5 5 4 5 5 4 3 3 2 3 3 4 3 5 4 4 4 6
2 3 2 2 2 4 4 5 5 6 5 5 8 10 13 13 12 12 12 3 3 3 3 3 3 3 4 4 3 4 4 4 3 3 3 3 3 4 4 3 4 9 9
2 5 5 3 4 4 3 4 5 6 6 5 4 5 9 10 7 6 6 3 3 3 2 2 2 3 3 2 3 3 3 5 5 4 4 3 3 4 4 5 6 6 6
3 4 7 3 3 4 4 3 4 5 6 6 5 6 11 5 4 5 5 4 3 3 3 2 2 3 3 3 3 3 2 2 2 3 3 4 4 5 4 5 5 5 5
4 4 3 3 2 3 3 2 3 3 4 5 6 7 14 5 4 4 4 3 2 1 1 2 2 2 2 2 3 4 4 4 3 3 2 2 3 3 4 4 4 5 6
4 4 5 3 3 6 5 4 3 3 3 3 4 5 9 6 3 2 2 2 3 2 1 1 1 1 1 1 2 2 3 4 4 3 3 3 3 3 3 4 4 4 6
5 5 4 4 4 5 4 4 4 7 3 2 3 4 6 5 3 3 1 1 2 2 1 1 1 1 1 1 1 1 2 2 3 3 3 3 3 5 3 3 4 4 5
4 5 5 5 5 5 5 5 5 5 4 3 2 3 4 4 4 4 3 2 2 1 1 1 1 1 2 3 2 3 6 11 5 7 3 2 3 3 3 3 4 5 8
3 3 4 4 4 4 5 5 5 5 5 4 4 4 4 4 3 4 4 4 3 3 2 2 1 1 1 1 3 6 11 12 9 11 3 3 3 3 3 4 4 5 7